TimeCST,TemperatureF,Dew PointF,Humidity,Sea Level PressureIn,VisibilityMPH,Wind Direction,Wind SpeedMPH,Gust SpeedMPH,PrecipitationIn,Events,Conditions,WindDirDegrees,DateUTC
12:53 AM,48.0,42.1,80,29.96,10.0,North,11.5,-,N/A,,Overcast,350,2012-12-11 06:53:00
1:00 AM,46.4,42.8,87,29.96,10.0,North,8.1,-,N/A,,Overcast,360,2012-12-11 07:00:00
1:53 AM,46.9,42.1,83,29.97,10.0,North,9.2,-,N/A,,Overcast,350,2012-12-11 07:53:00
2:45 AM,46.4,41.0,81,29.97,10.0,North,8.1,-,N/A,,Overcast,350,2012-12-11 08:45:00
2:53 AM,46.9,39.9,77,29.98,10.0,North,11.5,-,N/A,,Overcast,350,2012-12-11 08:53:00
3:26 AM,46.4,37.4,71,29.98,10.0,North,12.7,-,N/A,,Overcast,10,2012-12-11 09:26:00
3:53 AM,45.0,37.9,76,29.99,10.0,North,10.4,-,N/A,,Overcast,350,2012-12-11 09:53:00
4:53 AM,43.0,37.0,80,30.00,10.0,North,11.5,19.6,N/A,,Mostly Cloudy,360,2012-12-11 10:53:00
5:53 AM,42.1,36.0,79,30.02,10.0,North,11.5,20.7,N/A,,Mostly Cloudy,10,2012-12-11 11:53:00
6:53 AM,42.1,36.0,79,30.04,10.0,North,10.4,-,N/A,,Overcast,360,2012-12-11 12:53:00
7:53 AM,43.0,36.0,76,30.06,10.0,North,11.5,-,N/A,,Overcast,10,2012-12-11 13:53:00
8:53 AM,44.1,36.0,73,30.09,10.0,North,11.5,-,N/A,,Mostly Cloudy,360,2012-12-11 14:53:00
9:53 AM,46.0,37.0,71,30.10,10.0,North,12.7,-,N/A,,Clear,350,2012-12-11 15:53:00
10:53 AM,46.0,36.0,68,30.11,10.0,NNW,9.2,-,N/A,,Clear,340,2012-12-11 16:53:00
11:53 AM,48.0,37.0,66,30.08,10.0,North,12.7,-,N/A,,Clear,10,2012-12-11 17:53:00
12:53 PM,48.0,37.0,66,30.06,10.0,North,11.5,-,N/A,,Clear,10,2012-12-11 18:53:00
1:53 PM,48.0,37.0,66,30.05,10.0,North,11.5,-,N/A,,Clear,360,2012-12-11 19:53:00
2:53 PM,46.9,37.0,68,30.05,10.0,North,11.5,-,N/A,,Clear,350,2012-12-11 20:53:00
3:53 PM,46.0,37.0,71,30.07,10.0,North,10.4,17.3,N/A,,Clear,350,2012-12-11 21:53:00
4:53 PM,44.1,36.0,73,30.12,10.0,NNW,4.6,-,N/A,,Clear,330,2012-12-11 22:53:00
5:53 PM,43.0,36.0,76,30.12,10.0,NNE,8.1,-,N/A,,Partly Cloudy,20,2012-12-11 23:53:00
6:53 PM,43.0,36.0,76,30.15,10.0,North,9.2,-,N/A,,Clear,10,2012-12-12 00:53:00
7:53 PM,43.0,35.1,74,30.12,10.0,North,11.5,-,N/A,,Clear,10,2012-12-12 01:53:00
8:53 PM,42.1,35.1,76,30.15,10.0,North,8.1,-,N/A,,Clear,10,2012-12-12 02:53:00
9:53 PM,42.1,36.0,79,30.17,10.0,North,5.8,-,N/A,,Clear,10,2012-12-12 03:53:00
10:53 PM,42.1,35.1,76,30.19,10.0,NNE,5.8,-,N/A,,Clear,20,2012-12-12 04:53:00